DW0226 Weather Reports


Display with metric or nautical units.
time (UTC)temp
F
wind
direction
speed
MPH
gust
MPH
rain 1hr
in
rain 24hr
in
rain mn
in
humidity
%
barometer
mb
20260902013018 79 0.0 0.0 0.00 0.00 0.00 89 1013.4
20260902012019 79 0.0 0.0 0.00 0.00 0.00 88 1013.4
20260902011120 80 0.0 0.0 0.00 0.00 0.00 88 1013.4
20260902010017 80 0.0 1.0 0.00 0.00 0.00 87 1013.2
20260902005024 81 0.0 0.0 0.00 0.00 0.00 86 1012.7
20260902004017 81 0.0 0.0 0.00 0.00 0.00 86 1012.4
20260902003037 82 0.0 0.0 0.00 0.00 0.00 86 1012.4
20260902002017 82 0.0 0.0 0.00 0.00 0.00 85 1012.5
20260902001037 83 0.0 0.0 0.00 0.00 0.00 84 1012.4
20260902000017 83 0.0 0.0 0.00 0.00 0.00 83 1012.5
20260901235017 84 0.0 1.0 0.00 0.00 0.00 82 1012.3
20260901234017 85 0.0 1.0 0.00 0.00 0.00 81 1012.5
20260901233017 86 0.0 0.0 0.00 0.00 0.00 79 1012.5
20260901232017 87 0.0 0.0 0.00 0.00 0.00 78 1012.6
20260901231017 88 0.0 0.0 0.00 0.00 0.00 77 1012.4
20260901230037 89 0.0 0.0 0.00 0.00 0.00 74 1012.5
20260901225017 90 0.0 0.0 0.00 0.00 0.00 74 1012.6
20260901224017 91 0.0 1.0 0.00 0.00 0.00 72 1012.9
20260901223038 92 0.0 0.0 0.00 0.00 0.00 72 1013.0
20260901222017 92 0.0 0.0 0.00 0.00 0.00 69 1012.9
20260901221017 93 0.0 2.0 0.00 0.00 0.00 66 1012.9
20260901220018 93 270 1.0 3.0 0.00 0.00 0.00 65 1012.9
20260901215018 93 0.0 2.0 0.00 0.00 0.00 67 1013.0
20260901214038 93 270 2.0 6.0 0.00 0.00 0.00 62 1013.3
20260901213017 93 248 2.0 4.0 0.00 0.00 0.00 61 1013.3
20260901212015 94 248 3.0 5.0 0.00 0.00 0.00 61 1013.2
20260901211037 95 158 2.0 5.0 0.00 0.00 0.00 61 1013.2
20260901210015 95 135 1.0 3.0 0.00 0.00 0.00 59 1013.3
20260901205017 94 180 1.0 4.0 0.00 0.00 0.00 62 1013.3
20260901204038 94 248 2.0 6.0 0.00 0.00 0.00 59 1013.4
20260901203017 94 225 3.0 7.0 0.00 0.00 0.00 60 1013.5
20260901202017 94 203 1.0 3.0 0.00 0.00 0.00 62 1013.4
20260901201017 94 270 3.0 6.0 0.00 0.00 0.00 59 1013.6
20260901200038 94 293 3.0 6.0 0.00 0.00 0.00 61 1013.7
20260901195018 94 270 4.0 10.0 0.00 0.00 0.00 61 1013.8
20260901194017 94 270 3.0 7.0 0.00 0.00 0.00 64 1014.0
20260901193017 93 270 4.0 7.0 0.00 0.00 0.00 62 1014.1
20260901192017 93 293 3.0 6.0 0.00 0.00 0.00 62 1014.1
20260901191018 93 225 3.0 6.0 0.00 0.00 0.00 66 1014.1
20260901190018 93 203 3.0 6.0 0.00 0.00 0.00 64 1014.1
20260901185018 93 248 3.0 5.0 0.00 0.00 0.00 62 1014.1
20260901184057 93 248 2.0 5.0 0.00 0.00 0.00 66 1014.2
20260901183017 93 248 1.0 5.0 0.00 0.00 0.00 64 1014.3
20260901182037 92 248 3.0 5.0 0.00 0.00 0.00 64 1014.2
20260901181017 92 248 3.0 5.0 0.00 0.00 0.00 65 1014.3
20260901180018 92 225 2.0 5.0 0.00 0.00 0.00 62 1014.3
20260901175017 92 270 2.0 6.0 0.00 0.00 0.00 62 1014.5
20260901174018 92 270 3.0 5.0 0.00 0.00 0.00 64 1014.5
20260901173017 92 248 2.0 5.0 0.00 0.00 0.00 64 1014.4
20260901172015 91 225 2.0 4.0 0.00 0.00 0.00 65 1014.4
20260901171017 91 248 2.0 6.0 0.00 0.00 0.00 68 1014.5
20260901170037 90 248 1.0 4.0 0.00 0.00 0.00 69 1014.5
20260901165017 90 248 3.0 5.0 0.00 0.00 0.00 70 1014.8
20260901164018 89 248 1.0 4.0 0.00 0.00 0.00 72 1014.8
20260901163018 89 270 3.0 6.0 0.00 0.00 0.00 73 1015.1
20260901162018 88 270 1.0 5.0 0.00 0.00 0.00 75 1015.2
20260901161017 87 248 1.0 4.0 0.00 0.00 0.00 76 1015.4
20260901160017 86 270 3.0 5.0 0.00 0.00 0.00 78 1015.5
20260901155018 86 270 3.0 6.0 0.00 0.00 0.00 78 1015.5
20260901154018 86 270 3.0 6.0 0.00 0.00 0.00 77 1015.6
20260901153017 87 270 3.0 7.0 0.00 0.00 0.00 78 1015.6
20260901152037 86 293 4.0 7.0 0.00 0.00 0.00 78 1015.8
20260901151017 85 225 3.0 6.0 0.00 0.00 0.00 79 1015.8
20260901150017 85 225 3.0 6.0 0.00 0.00 0.00 79 1015.7
20260901145057 85 270 3.0 7.0 0.00 0.00 0.00 80 1015.9
20260901144039 85 270 4.0 7.0 0.00 0.00 0.00 80 1015.9
20260901143018 84 248 3.0 6.0 0.00 0.00 0.00 81 1015.9
20260901142017 83 225 1.0 5.0 0.00 0.00 0.00 84 1015.7
20260901141017 82 180 1.0 4.0 0.00 0.00 0.00 86 1015.7
20260901140017 81 225 2.0 3.0 0.00 0.00 0.00 87 1015.7
20260901135057 81 270 2.0 4.0 0.00 0.00 0.00 87 1015.9
20260901134017 81 270 2.0 4.0 0.00 0.00 0.00 86 1016.0
20260901133017 81 293 2.0 4.0 0.00 0.00 0.00 86 1015.9
20260901132017 81 270 2.0 4.0 0.00 0.00 0.00 87 1016.0
20260901131017 80 225 1.0 3.0 0.00 0.00 0.00 89 1016.1
20260901130018 79 248 1.0 3.0 0.00 0.00 0.00 91 1016.1
20260901125018 79 0.0 0.0 0.00 0.00 0.00 93 1016.1
20260901124017 78 0.0 0.0 0.00 0.00 0.00 94 1016.0
20260901123017 77 0.0 0.0 0.00 0.00 0.00 94 1016.0
20260901122018 77 0.0 0.0 0.00 0.00 0.00 95 1016.1
20260901121037 76 0.0 0.0 0.00 0.00 0.00 97 1016.1
20260901120018 75 0.0 0.0 0.00 0.00 0.00 97 1016.0
20260901115017 74 0.0 0.0 0.00 0.00 0.00 97 1016.0
20260901114017 74 0.0 0.0 0.00 0.00 0.00 97 1016.0
20260901113037 73 0.0 0.0 0.00 0.00 0.00 97 1015.9
20260901112017 72 0.0 0.0 0.00 0.00 0.00 98 1015.8
20260901111017 72 0.0 0.0 0.00 0.00 0.00 97 1015.7
20260901110017 71 0.0 0.0 0.00 0.00 0.00 97 1015.6
20260901105017 71 0.0 0.0 0.00 0.00 0.00 96 1015.5
20260901104017 71 0.0 0.0 0.00 0.00 0.00 96 1015.5
20260901103017 71 0.0 0.0 0.00 0.00 0.00 96 1015.4
20260901102018 71 0.0 0.0 0.00 0.00 0.00 96 1015.4
20260901101017 71 0.0 0.0 0.00 0.00 0.00 96 1015.6
20260901100017 71 0.0 0.0 0.00 0.00 0.00 96 1015.7
20260901095001 71 0.0 0.0 0.00 0.00 0.00 96 1015.7
20260901094518 71 0.0 0.0 0.00 0.00 0.00 96 1015.6
20260901093518 71 0.0 0.0 0.00 0.00 0.00 96 1015.7
20260901092517 71 0.0 0.0 0.00 0.00 0.00 96 1015.7
20260901091518 71 0.0 0.0 0.00 0.00 0.00 96 1015.5
20260901090558 71 0.0 0.0 0.00 0.00 0.00 96 1015.5
20260901085516 71 0.0 0.0 0.00 0.00 0.00 96 1015.4
20260901084518 72 0.0 0.0 0.00 0.00 0.00 95 1015.5
20260901083517 72 0.0 0.0 0.00 0.00 0.00 96 1015.5
20260901082517 72 0.0 0.0 0.00 0.00 0.00 95 1015.5
20260901081517 72 0.0 0.0 0.00 0.00 0.00 95 1015.5
20260901080518 72 0.0 0.0 0.00 0.00 0.00 96 1015.5
20260901075538 73 0.0 0.0 0.00 0.00 0.00 95 1015.6
20260901074538 73 0.0 0.0 0.00 0.00 0.00 95 1015.8
20260901073517 73 0.0 0.0 0.00 0.00 0.00 96 1015.9
20260901072538 73 0.0 0.0 0.00 0.00 0.00 96 1015.9
20260901071517 73 0.0 0.0 0.00 0.00 0.00 96 1015.8
20260901070517 73 0.0 0.0 0.00 0.00 0.00 96 1015.8
20260901065517 73 0.0 0.0 0.00 0.00 0.00 95 1015.8
20260901064517 73 0.0 0.0 0.00 0.00 0.00 95 1015.9
20260901063517 73 0.0 0.0 0.00 0.00 0.00 95 1015.9
20260901062517 73 0.0 0.0 0.00 0.00 0.00 95 1016.1
20260901061517 73 0.0 0.0 0.00 0.00 0.00 95 1016.1
20260901060517 73 0.0 0.0 0.00 0.00 0.00 94 1016.1
20260901055517 74 0.0 0.0 0.00 0.00 0.00 95 1016.1
20260901054517 74 0.0 0.0 0.00 0.00 0.00 95 1016.3
20260901053518 74 0.0 0.0 0.00 0.00 0.00 95 1016.3
20260901053017 74 0.0 0.0 0.00 0.00 0.00 95 1016.3
20260901052017 74 0.0 0.0 0.00 0.00 0.00 95 1016.5
20260901051037 75 0.0 0.0 0.00 0.00 0.00 95 1016.6
20260901050015 75 0.0 0.0 0.00 0.00 0.00 95 1016.5
20260901045017 75 0.0 0.0 0.00 0.00 0.00 95 1016.7
20260901044017 75 0.0 0.0 0.00 0.00 0.00 95 1016.7
20260901043018 75 0.0 0.0 0.00 0.00 0.00 95 1016.6
20260901042017 74 0.0 0.0 0.00 0.00 0.00 95 1016.8
20260901041017 74 0.0 0.0 0.00 0.00 0.00 94 1016.8
20260901040017 74 0.0 0.0 0.00 0.00 0.00 94 1016.7
20260901035036 74 0.0 0.0 0.00 0.00 0.00 94 1016.8
20260901034016 74 0.0 0.0 0.00 0.00 0.00 94 1016.8
20260901033021 74 0.0 0.0 0.00 0.00 0.00 94 1016.7
20260901032056 75 0.0 0.0 0.00 0.00 0.00 94 1016.7
20260901031016 75 0.0 0.0 0.00 0.00 0.00 94 1016.7
20260901030017 74 0.0 0.0 0.00 0.00 0.00 93 1016.7
20260901025032 75 0.0 0.0 0.00 0.00 0.00 93 1016.7
20260901024517 75 0.0 0.0 0.00 0.00 0.00 93 1016.6
20260901023538 75 0.0 0.0 0.00 0.00 0.00 92 1016.6
20260901022521 75 0.0 0.0 0.00 0.00 0.00 92 1016.6
20260901021516 76 0.0 0.0 0.00 0.00 0.00 92 1016.6
20260901020517 76 0.0 0.0 0.00 0.00 0.00 91 1016.6
20260901015515 76 0.0 0.0 0.00 0.00 0.00 91 1016.6
20260901014516 76 0.0 0.0 0.00 0.00 0.00 91 1016.7